• In Lithuania
  • List of Countries
  • For 7 days
  • Water Temperature
  • Satellite Maps
  • Weather Map
  • Weather Widgets
  • user-avatar
    Login

    Hourly Weather Lankaran

    Today, 26 September, Tuesday

    Time Temperature Precipitation Wind Pressure Humidity
    00:00 +13°C° 0 mm 2 mps 638 mmHg 85%
    01:00 +12°C° 0.1 mm 2 mps 637 mmHg 86%
    02:00 +12°C° 0.1 mm 2 mps 637 mmHg 86%
    03:00 +12°C° 0 mm 2 mps 637 mmHg 86%
    04:00 +12°C° 0.1 mm 2 mps 637 mmHg 87%
    05:00 +12°C° 0.1 mm 2 mps 637 mmHg 88%
    06:00 +12°C° 0.1 mm 2 mps 637 mmHg 88%
    07:00 +13°C° 0.1 mm 2 mps 637 mmHg 83%
    08:00 +14°C° 0.1 mm 2 mps 637 mmHg 77%
    09:00 +15°C° 0 mm 2 mps 638 mmHg 69%
    10:00 +16°C° 0.2 mm 2 mps 638 mmHg 68%
    11:00 +16°C° 0.2 mm 2 mps 638 mmHg 67%
    12:00 +17°C° 0.2 mm 3 mps 638 mmHg 66%
    13:00 +17°C° 0.1 mm 3 mps 637 mmHg 67%
    14:00 +17°C° 0.1 mm 3 mps 637 mmHg 67%
    15:00 +17°C° 0.1 mm 3 mps 637 mmHg 67%
    16:00 +16°C° 0.1 mm 3 mps 637 mmHg 73%
    17:00 +14°C° 0.1 mm 3 mps 637 mmHg 78%
    18:00 +14°C° 0.1 mm 3 mps 637 mmHg 84%
    19:00 +13°C° 0.2 mm 3 mps 637 mmHg 85%
    20:00 +13°C° 0.2 mm 3 mps 637 mmHg 87%
    21:00 +13°C° 0.2 mm 3 mps 637 mmHg 88%
    22:00 +13°C° 0.3 mm 3 mps 637 mmHg 89%
    23:00 +12°C° 0.3 mm 3 mps 637 mmHg 89%

    Tomorrow, 27 September, Wednesday

    Time Temperature Precipitation Wind Pressure Humidity
    00:00 +12°C° 0.3 mm 3 mps 637 mmHg 90%
    01:00 +12°C° 0.2 mm 3 mps 636 mmHg 90%
    02:00 +12°C° 0.2 mm 3 mps 636 mmHg 91%
    03:00 +12°C° 0.2 mm 3 mps 636 mmHg 91%
    04:00 +13°C° 0.2 mm 2 mps 636 mmHg 91%
    05:00 +13°C° 0.2 mm 2 mps 636 mmHg 92%
    06:00 +13°C° 0.2 mm 2 mps 636 mmHg 92%
    07:00 +14°C° 0.2 mm 2 mps 636 mmHg 86%
    08:00 +14°C° 0.2 mm 3 mps 636 mmHg 80%
    09:00 +16°C° 0.2 mm 3 mps 637 mmHg 75%
    10:00 +16°C° 0.2 mm 3 mps 637 mmHg 72%
    11:00 +17°C° 0.2 mm 3 mps 636 mmHg 70%
    12:00 +18°C° 0.2 mm 4 mps 636 mmHg 67%
    13:00 +17°C° 0.3 mm 4 mps 636 mmHg 70%
    14:00 +17°C° 0.3 mm 4 mps 636 mmHg 73%
    15:00 +15°C° 0.3 mm 5 mps 635 mmHg 76%
    16:00 +14°C° 0.3 mm 5 mps 635 mmHg 81%
    17:00 +13°C° 0.3 mm 4 mps 635 mmHg 85%
    18:00 +13°C° 0.3 mm 4 mps 635 mmHg 89%
    19:00 +13°C° 0.7 mm 4 mps 635 mmHg 89%
    20:00 +12°C° 0.7 mm 4 mps 636 mmHg 90%
    21:00 +12°C° 0.7 mm 4 mps 636 mmHg 91%
    22:00 +12°C° 0.7 mm 4 mps 636 mmHg 91%
    23:00 +12°C° 0.7 mm 4 mps 636 mmHg 91%

    Day after tomorrow, 28 September, Thursday

    Time Temperature Precipitation Wind Pressure Humidity
    00:00 +12°C° 0.7 mm 4 mps 636 mmHg 92%
    01:00 +10°C° 0.5 mm 5 mps 636 mmHg 92%
    02:00 +10°C° 0.5 mm 5 mps 636 mmHg 93%
    03:00 +10°C° 0.5 mm 5 mps 636 mmHg 93%
    04:00 +9°C° 0.2 mm 5 mps 636 mmHg 93%
    05:00 +10°C° 0.2 mm 4 mps 636 mmHg 93%
    06:00 +10°C° 0.2 mm 4 mps 636 mmHg 93%
    07:00 +10°C° 0.3 mm 4 mps 636 mmHg 91%
    08:00 +10°C° 0.3 mm 4 mps 637 mmHg 89%
    09:00 +11°C° 0.3 mm 4 mps 637 mmHg 86%
    10:00 +11°C° 0.4 mm 4 mps 637 mmHg 84%
    11:00 +11°C° 0.4 mm 4 mps 637 mmHg 82%
    12:00 +12°C° 0.4 mm 4 mps 637 mmHg 80%
    13:00 +11°C° 0.3 mm 4 mps 637 mmHg 81%
    14:00 +11°C° 0.3 mm 4 mps 637 mmHg 82%
    15:00 +11°C° 0.3 mm 4 mps 636 mmHg 83%
    16:00 +11°C° 0.1 mm 4 mps 637 mmHg 86%
    17:00 +10°C° 0.1 mm 4 mps 637 mmHg 88%
    18:00 +10°C° 0.1 mm 4 mps 637 mmHg 91%
    19:00 +8°C° 0.1 mm 4 mps 637 mmHg 91%
    20:00 +8°C° 0.1 mm 4 mps 638 mmHg 91%
    21:00 +8°C° 0.1 mm 4 mps 638 mmHg 91%
    22:00 +9°C° 0.1 mm 3 mps 638 mmHg 91%
    23:00 +9°C° 0.1 mm 3 mps 638 mmHg 91%

    29 September, Friday

    Time Temperature Precipitation Wind Pressure Humidity
    00:00 +8°C° 0.1 mm 3 mps 638 mmHg 91%
    01:00 +8°C° 0.1 mm 3 mps 638 mmHg 91%
    02:00 +8°C° 0.1 mm 3 mps 638 mmHg 91%
    03:00 +8°C° 0.1 mm 3 mps 638 mmHg 91%
    04:00 +8°C° 0.1 mm 3 mps 638 mmHg 91%
    05:00 +8°C° 0.1 mm 3 mps 638 mmHg 91%
    06:00 +8°C° 0.1 mm 3 mps 638 mmHg 91%
    07:00 +8°C° 0.1 mm 3 mps 638 mmHg 87%
    08:00 +9°C° 0.1 mm 3 mps 639 mmHg 83%
    09:00 +10°C° 0.1 mm 3 mps 639 mmHg 79%
    10:00 +10°C° 0.1 mm 3 mps 639 mmHg 76%
    11:00 +11°C° 0.1 mm 3 mps 639 mmHg 73%
    12:00 +12°C° 0.1 mm 4 mps 639 mmHg 70%
    13:00 +12°C° 0.2 mm 4 mps 638 mmHg 71%
    14:00 +12°C° 0.2 mm 4 mps 638 mmHg 72%
    15:00 +12°C° 0.2 mm 4 mps 638 mmHg 74%
    16:00 +11°C° 0.2 mm 4 mps 638 mmHg 78%
    17:00 +10°C° 0.2 mm 4 mps 638 mmHg 82%
    18:00 +10°C° 0.2 mm 3 mps 638 mmHg 86%
    19:00 +10°C° 0.3 mm 3 mps 638 mmHg 87%
    20:00 +10°C° 0.3 mm 3 mps 638 mmHg 88%
    21:00 +10°C° 0.3 mm 3 mps 638 mmHg 89%
    22:00 +10°C° 0.2 mm 3 mps 638 mmHg 89%
    23:00 +10°C° 0.2 mm 2 mps 637 mmHg 90%

    30 September, Saturday

    Time Temperature Precipitation Wind Pressure Humidity
    00:00 +9°C° 0.2 mm 2 mps 637 mmHg 91%
    01:00 +9°C° 0.1 mm 2 mps 637 mmHg 91%
    02:00 +9°C° 0.1 mm 2 mps 636 mmHg 91%
    03:00 +9°C° 0.1 mm 2 mps 636 mmHg 91%
    04:00 +9°C° 0.1 mm 2 mps 636 mmHg 91%
    05:00 +9°C° 0.1 mm 2 mps 636 mmHg 90%
    06:00 +9°C° 0.1 mm 2 mps 636 mmHg 90%
    07:00 +10°C° 0.1 mm 2 mps 636 mmHg 82%
    08:00 +12°C° 0.1 mm 3 mps 636 mmHg 74%
    09:00 +13°C° 0.1 mm 3 mps 637 mmHg 66%
    10:00 +16°C° 0.1 mm 3 mps 637 mmHg 62%
    11:00 +17°C° 0.1 mm 3 mps 637 mmHg 57%
    12:00 +18°C° 0.1 mm 3 mps 636 mmHg 53%
    13:00 +17°C° 0.5 mm 3 mps 636 mmHg 57%
    14:00 +17°C° 0.5 mm 3 mps 635 mmHg 62%
    15:00 +16°C° 0.5 mm 2 mps 634 mmHg 67%
    16:00 +16°C° 0.4 mm 2 mps 634 mmHg 72%
    17:00 +15°C° 0.4 mm 2 mps 634 mmHg 78%
    18:00 +14°C° 0.4 mm 2 mps 634 mmHg 83%
    19:00 +13°C° 0.1 mm 2 mps 634 mmHg 85%
    20:00 +13°C° 0.1 mm 2 mps 633 mmHg 87%
    21:00 +13°C° 0.1 mm 2 mps 633 mmHg 89%
    22:00 +13°C° 0.1 mm 2 mps 633 mmHg 88%
    23:00 +13°C° 0.1 mm 2 mps 633 mmHg 88%

    1 October, Sunday

    Time Temperature Precipitation Wind Pressure Humidity
    00:00 +13°C° 0.1 mm 2 mps 633 mmHg 87%
    01:00 +12°C° 0 mm 2 mps 633 mmHg 86%
    02:00 +11°C° 0 mm 3 mps 633 mmHg 86%
    03:00 +11°C° 0 mm 3 mps 633 mmHg 85%
    04:00 +11°C° 0 mm 3 mps 633 mmHg 85%
    05:00 +10°C° 0 mm 3 mps 633 mmHg 84%
    06:00 +10°C° 0 mm 2 mps 633 mmHg 83%
    07:00 +12°C° 0 mm 3 mps 634 mmHg 73%
    08:00 +14°C° 0 mm 3 mps 635 mmHg 64%
    09:00 +17°C° 0 mm 4 mps 636 mmHg 54%
    10:00 +18°C° 0 mm 4 mps 636 mmHg 51%
    11:00 +19°C° 0 mm 4 mps 636 mmHg 48%
    12:00 +20°C° 0 mm 4 mps 636 mmHg 45%
    13:00 +19°C° 0 mm 4 mps 636 mmHg 49%
    14:00 +19°C° 0 mm 3 mps 635 mmHg 52%
    15:00 +19°C° 0 mm 3 mps 635 mmHg 56%
    16:00 +17°C° 0 mm 3 mps 635 mmHg 64%
    17:00 +16°C° 0 mm 3 mps 635 mmHg 72%
    18:00 +13°C° 0 mm 3 mps 635 mmHg 81%
    19:00 +13°C° 0.1 mm 3 mps 635 mmHg 83%
    20:00 +13°C° 0.1 mm 3 mps 635 mmHg 85%
    21:00 +12°C° 0.1 mm 3 mps 636 mmHg 87%
    22:00 +12°C° 0.2 mm 3 mps 635 mmHg 87%
    23:00 +12°C° 0.2 mm 3 mps 635 mmHg 87%
    Show more